SENTINEL-3A             
1 41335U 16011A   19265.48125062 -.00000019  00000-0  10062-4 0  9990
2 41335  98.6295 331.0745 0000967 103.7431 256.3857 14.26735226187326
BREEZE-KM R/B           
1 41336U 16011B   19265.11829453  .00000765  00000-0  39861-4 0  9991
2 41336  98.6923 140.9493 0236556 334.7903  24.1918 14.99232139196646